Location: Allie Creek
(37.5926°N, 89.8526°W)
Time: 04:19:15
(UTC+00:00)

Meteor 1-27 Rocket - Pass Details

Date: 26 September 2023
Orbit: 829 x 910 km, 81.3° (Epoch: 29 November)

Event Time Altitude Azimuth Distance (km) Brightness Sun altitude
Rises 10:41:04 0° 178° (S) 3,359 6.7 -14.5°
Reaches altitude 10° 10:43:27 10° 175° (S) 2,434 6.0 -14.1°
Maximum altitude 10:48:53 64° 95° (E) 929 4.2 -13.0°
Drops below altitude 10° 10:54:27 10° 15° (NNE) 2,489 6.5 -11.9°
Sets 10:56:55 0° 13° (NNE) 3,441 7.2 -11.4°
